Location: Stara Lesna
(49.1528°N, 20.2911°E)
Time: 22:17:33
(UTC+02:00)

Unknown - Pass Details

Date: 21 September 2019
Orbit: 549 x 550 km, 53.0° (Epoch: 16 October)

Event Time Altitude Azimuth Distance (km) Brightness Sun altitude
Exits shadow 04:49:25 29° 270° (W) 1,029 4.5 -15.8°
Maximum altitude 04:51:24 65° 343° (NNW) 610 3.8 -15.5°
Drops below altitude 10° 04:55:32 10° 66° (ENE) 1,829 7.7 -14.9°
Sets 04:57:48 0° 70° (ENE) 2,724 9.2 -14.5°
